Regional Weather Roundup
Issued by NWS

Home | Current Version | Previous Version | Text Only | Print | Product List | Glossary On
Versions: 1 2 3 4 5 6 7 8 9 10 11 12 13 14 15 16 17 18 19 20 21 22 23 24 25 26 27 28 29 30 31 32 33 34 35 36 37 38 39 40 41 42 43 44 45 46 47 48 49 50
000
ASUS46 KLOX 210612
RWRCA

SOUTHERN CALIFORNIA WEATHER ROUNDUP
NATIONAL WEATHER SERVICE OXNARD CALIFORNIA
1000 PM PST SAT DEC 20 2014

NOTE: "FAIR" INDICATES FEW OR NO CLOUDS BELOW 12,000 FEET WITH NO
SIGNIFICANT WEATHER AND/OR OBSTRUCTIONS TO VISIBILITY.

  -  STATIONS PRECEEDED BY AN ASTERISK (*) ARE NOT NWS OR FAA
     STATIONS AND ARE NOT SUBJECT TO NWS AND FAA QUALITY CONTROL.

CAZ041-042-087-210700-
LA AND ORANGE COUNTY COASTAL AREAS


CITY           SKY/WX    TMP DP  RH WIND       PRES   REMARKS
L.A. DOWNTOWN  CLOUDY    58  48  69 CALM      30.14F
L.A. AIRPORT   MOCLDY    58  50  75 CALM      30.15S
LONG BEACH     MOCLDY    58  54  86 E5        30.14F

CITY           SKY/WX    TMP DP  RH WIND       PRES   REMARKS
AVALON           N/A     59 N/A N/A MISG        N/A
FULLERTON      MOCLDY    58  50  75 E6        30.14F
*GETTY CENTER    N/A     52  46  82 NE3         N/A
HAWTHORNE      MOCLDY    60  50  69 NE3       30.15S
*LEO CARRILLO    N/A     58  53  83 N7          N/A
*LOS ALAMITOS  CLOUDY    59  55  87 E5        30.15S
*REDONDO BEACH   N/A     56  52  86 CALM      30.13S
SANTA ANA      MOCLDY    63  54  72 CALM      30.15S
STA MONICA APT MOCLDY    58  48  69 NE3       30.15S
*STA MON PIER    N/A     59  52  75 N1        30.15R
*UCLA            N/A     55  46  71 NE5       30.13R

$$

CAZ547-548-048-210700-
LA COUNTY VALLEYS AND INLAND EMPIRE


CITY           SKY/WX    TMP DP  RH WIND       PRES   REMARKS
BURBANK        CLOUDY    56  47  71 NE3       30.14S
VAN NUYS       CLOUDY    54  48  80 CALM      30.15S

CITY           SKY/WX    TMP DP  RH WIND       PRES   REMARKS
CORONA AIRPORT MOCLDY    47  47 100 CALM      30.17S FOG
*CHATSWORTH      N/A     54  50  87 CALM      30.15R
CHINO          MOCLDY    49  47  93 SE5       30.17S FOG
MARCH AFB      MOCLDY    49  49 100 CALM      30.17R
*NORTHRIDGE      N/A     54  48  82 CALM        N/A
ONTARIO        MOCLDY    51  45  79 E3        30.15F
*PASADENA        N/A     54  50  87 CALM        N/A
RIVERSIDE      MOCLDY    50  47  89 E5        30.17R FOG
SAN BERNARDINO NOT AVBL
*SAN GABRIEL     N/A     54  47  77 CALM      30.14R
*SAN RAFAEL HI   N/A     50  46  85 SW6         N/A
*SAUGUS          N/A     60  48  64 N14G35      N/A
*WHITEMAN AP   NOT AVBL
*WHITTIER HILL   N/A     54  51  88 E8          N/A
*WOODLAND HILL   N/A     54  50  87 SW2         N/A

$$

CAZ054-055-210700-
LA AND SAN BERNARDINO COUNTY MOUNTAINS


CITY           SKY/WX    TMP DP  RH WIND       PRES   REMARKS
*ACTON           N/A     48  43  83 NW2         N/A
*BIG BEAR AIRP MOCLDY    32  32 100 CALM      30.23S
*BIG PINES       N/A     37  33  85 CALM        N/A
MT WILSON NWS    N/A     37  39 100 N2          N/A
SANDBERG       LGT RAIN  47  44  90 N33G44    30.20S VSB 1/4

$$

CAZ028-029-059-060-099-210700-
ANTELOPE VALLEY AND SURROUNDING AREAS


CITY           SKY/WX    TMP DP  RH WIND       PRES   REMARKS
LANCASTER      CLOUDY    51  45  79 NW14      30.20R
PALMDALE       CLOUDY    50  44  80 NW5       30.21R
*POPPY PARK      N/A     52  48  85 W24G41      N/A

CITY           SKY/WX    TMP DP  RH WIND       PRES   REMARKS
29 PALMS       CLOUDY    45  37  73 W6        30.23S
BARSTOW/DAGGET PTCLDY    43  39  86 W5        30.19R
BISHOP         PTCLDY    34  28  79 N6        30.20R WCI  29
EDWARDS AFB    MOCLDY    45  41  87 NW6       30.18R
MOJAVE         FAIR      45  39  81 N5        30.20S
NEEDLES        PTCLDY    51  40  65 VRB6      30.15R
VICTORVILLE    MOCLDY    48  43  81 CALM      30.19S

$$

CAZ039-040-210700-
VENTURA AND SANTA BARBARA COUNTY COAST


CITY           SKY/WX    TMP DP  RH WIND       PRES   REMARKS
CAMARILLO      CLOUDY    56  52  86 CALM      30.14R
OXNARD AIRPORT CLOUDY    57  52  83 E3        30.13R
*POINT MUGU    CLOUDY    56  53  90 N3        30.15R
SBA APT/GOLETA PTCLDY    65  51  60 N22       30.14S
*SANTA BARBARA   N/A     63  51  64 CALM      30.21S
*VENTURA         N/A     56  52  87 CALM      30.17S

$$

CAZ044-045-210700-
VENTURA COUNTY VALLEYS


CITY           SKY/WX    TMP DP  RH WIND       PRES   REMARKS
*SIMI VALLEY     N/A     54  51  89 CALM      30.13R
*OJAI            N/A     52  49  89 CALM      30.10F
*FILLMORE        N/A     54  51  89 CALM      30.06R

$$

CAZ053-210700-
VENTURA COUNTY MOUNTAINS


CITY           SKY/WX    TMP DP  RH WIND       PRES   REMARKS
*LOCKWOOD VLY    N/A    N/A N/A N/A MISG        N/A
*ROSE VALLEY     N/A     50  46  87 MISG        N/A

$$

CAZ034-035-036-210700-
CENTRAL COAST AND SANTA YNEZ VALLEY


CITY           SKY/WX    TMP DP  RH WIND       PRES   REMARKS
SAN LUIS OBISP PTCLDY    58  52  80 NW5       30.25R
SANTA MARIA    PTCLDY    59  54  83 NW6       30.24R

CITY           SKY/WX    TMP DP  RH WIND       PRES   REMARKS
*CAL POLY SLO    N/A     59  54  82 NE7         N/A
*LOMPOC        MOCLDY    57  52  82 NW7       30.23S
*PISMO BEACH     N/A     60  54  80 NW3       30.25S
*SANTA YNEZ    FAIR      55  52  88 N10       30.20S

$$

CAZ037-038-051-210700-
SAN LUIS OBISPO COUNTY INTERIOR AND CUYAMA VALLEY


CITY           SKY/WX    TMP DP  RH WIND       PRES   REMARKS
*CUYAMA          N/A     52  50  92 CALM      30.25R
PASO ROBLES    MOCLDY    54  49  83 NW5       30.27R

$$

CAZ032-033-061-210700-
SOUTHERN DESERTS


CITY           SKY/WX    TMP DP  RH WIND       PRES   REMARKS
BLYTHE         CLEAR     51  47  86 CALM      30.13S
IMPERIAL       CLEAR     48  43  82 W5        30.13R
PALM SPRINGS   CLOUDY    56  43  61 N3        30.16R
THERMAL        MOCLDY    49  43  80 NE6       30.13F

$$

ELSEWHERE ACROSS THE WESTERN UNITED STATES AND MEXICO


CITY           SKY/WX    TMP DP  RH WIND       PRES   REMARKS
DENVER, CO     MOCLDY    36  21  54 SW6       29.90F WCI  31
GRAND CANYON,  MOCLDY    28  24  85 CALM      30.17R
HONOLULU, HI   PTCLDY    75  66  73 NE3       30.00R
KAHULUI, MAUI  CLEAR     73  63  68 SE6       30.00R
LAKE TAHOE, CA CLOUDY    43  35  73 S15G25    30.24S
LAS VEGAS, NV  PTCLDY    49  37  63 SW7       30.12S
MAMMOTH LAKES, FAIR      36  32  87 N6        30.26R WCI  31
MEXICO CITY, M CLEAR     59  45  58 E7        30.30F
PHOENIX, AZ    CLOUDY    54  43  66 SE5       30.10R
PORTLAND, OR   LGT RAIN  58  55  90 SW10G23   29.68R
RENO, NV       CLOUDY    51  37  58 NW18      30.16R
SALT LAKE CITY CLOUDY    40  34  79 SE6       30.04F
SAN DIEGO, CA  CLOUDY    63  53  70 CALM      30.17F
SAN FRANCISCO, MOCLDY    60  56  86 S5        30.24S
SAN JOSE, CA   CLOUDY    59  52  77 E5        30.26R
SEATTLE, WA    CLOUDY    54  52  94 SW22G39   29.50R
TIJUANA, MEX   CLOUDY    59  52  77 CALM      30.19S

$$

STATION/POSITION TIME  TEMP    WIND        PRES    VSBY  WAVE
                       AIR SEA DIR/SP/G                  HT/PER
                 (UTC) (F)     (DEG/KT/KT) (MB)    (MI)  (FT/S)
POINT ARGUELLO B NOT AVBL
WEST SANTA BARBA 0600   62 62  330/ 21/ 27 1022.1R        13/17
POINT CONCEPTION NOT AVBL
EAST SANTA BARBA NOT AVBL
SANTA MONICA BAY 0600   63 63  310/ 14/ 16 1020.6S         5/17


USA.gov is the U.S. government's official web portal to all federal, state and local government web resources and services.